Volver al catálogo

NINGXIA-1 9

ActivoCienciaLEO
NORAD 49021·PAYLOAD·🇨🇳 China

Lanzado Jul 9, 2021 desde Taiyuan Satellite Launch Center

Loading…

Próximos Pases (próximas 24 horas)

TLE

ActualizadoSource: Space-Track

Época: Sep 14, 2026, 14:23 UTC

1 49021U 21064D   26257.59989023 -.00000273  00000-0 -81334-4 0  9993
2 49021  45.0018 183.0453 0009571 318.6517  41.3595 14.08519911266834

Sigue NINGXIA-1 9 en tiempo real con AllMySat

Download on the App Store